Flag for Germany Weather past 2 weeks in Jülich, North Rhine-Westphalia, Germany

Now
54 °F

Clear.


Feels Like: 54 °F
Forecast: 46 / 61 °F
Wind: 2 mph from South

Location: Geilenkirchen Airport

Current Time: Sep 24, 2014 at 1:15:41 AM

Latest Report: Sep 24, 2014 at 12:50 AM


Visibility: 10 mi

Pressure: 30.04 "Hg

Humidity: 77%

Dew point: 46 °F

Location of JülichLocation

Historic Weather in Jülich — Graph

°F

Jülich temperature yesterday

Maximum temperature yesterday: 63 °F (at 2:50 PM)
Minimum temperature yesterday: 45 °F (at 3:50 AM)
Average temperature yesterday: 53 °F

Past Weeks' High & Low Weather Summary

 TemperatureHumidityPressure
High68 °F (Sep 11, 2:50 PM)100% (Sep 9, 12:50 AM)30.21 "Hg (Sep 9, 12:50 AM)
Low45 °F (Sep 23, 3:50 AM)45% (Sep 23, 4:50 PM)29.92 "Hg (Sep 17, 7:50 AM)
Average57 °F81%30.12 "Hg
* Reported Sep 9 12:50 AM — Sep 23 11:50 PM, Jülich, Weather by CustomWeather, © 2014

Note: Actual official high and low records may vary slightly from our data, if they occured in-between our weather recording intervals... More about our weather records

Advertising

Jülich weather history for previous 24 hours

 ConditionsComfort  
Time TempWeatherWind HumidityBarometerVisibility
11:50 PM
Sep 23
52 °FClear.2 mph88%30.07 "Hg10 mi
10:50 PM54 °FClear.2 mph82%30.07 "Hg10 mi
9:50 PM54 °FClear.2 mph82%30.07 "Hg10 mi
8:50 PM52 °FClear.2 mph82%30.09 "Hg10 mi
7:50 PM54 °FSunny.1 mph82%30.09 "Hg10 mi
6:50 PM59 °FSunny.2 mph63%30.09 "Hg10 mi
5:50 PM61 °FPartly sunny.3 mph52%30.09 "HgN/A
4:50 PM63 °FPassing clouds.1 mph45%30.12 "HgN/A
3:50 PM61 °FPassing clouds.3 mph52%30.15 "HgN/A
2:50 PM63 °FScattered clouds.No wind49%30.15 "HgN/A
1:50 PM61 °FScattered clouds.1 mph55%30.18 "HgN/A
12:50 PM59 °FScattered clouds.1 mph59%30.18 "HgN/A
11:50 AM59 °FPassing clouds.5 mph63%30.21 "HgN/A
10:50 AM57 °FSunny.6 mph67%30.21 "Hg10 mi
9:50 AM54 °FPassing clouds.7 mph94%30.21 "HgN/A
8:50 AM50 °FScattered clouds.2 mph88%30.18 "HgN/A
7:50 AM48 °FPassing clouds.6 mph87%30.18 "Hg5 mi
6:50 AM48 °FPassing clouds.5 mph94%30.18 "Hg5 mi
5:50 AM46 °FPassing clouds.6 mph100%30.18 "Hg4 mi
4:50 AM46 °FPassing clouds.7 mph100%30.18 "Hg5 mi
3:50 AM45 °FClear.7 mph100%30.18 "Hg10 mi
2:50 AM46 °FClear.5 mph100%30.21 "Hg10 mi
1:50 AM46 °FClear.2 mph100%30.21 "Hg10 mi
Weather by CustomWeather, © 2014

See weather overviewHow to use our weather pages